This is the latest recevied weather packets stored in our database for station/object CT1ETE-13. If no packets are shown the sender has not sent any weather packets the latest 10 day(s).
| Time | Temp. | Humidity | Pressure | Rain* | Wind** | Luminosity | Snow |
|---|---|---|---|---|---|---|---|
| 1777292248 | 27.22° C | 45% | 1014.2 hPa | 0 mm | - | - | - |
| 1777291348 | 27.22° C | 44% | 1014.3 hPa | 0 mm | - | - | - |
| 1777290447 | 26.67° C | 45% | 1014.4 hPa | 0 mm | - | - | - |
| 1777289547 | 26.67° C | 46% | 1014.6 hPa | 0 mm | - | - | - |
| 1777288707 | 26.67° C | 48% | 1014.8 hPa | 0 mm | - | - | - |
| 1777287805 | 26.11° C | 47% | 1014.9 hPa | 0 mm | - | - | - |
| 1777286845 | 26.11° C | 46% | 1015.1 hPa | 0 mm | - | - | - |
| 1777285945 | 26.11° C | 49% | 1015 hPa | 0 mm | - | - | - |
| 1777285106 | 25.56° C | 52% | 1015.1 hPa | 0 mm | - | - | - |
| 1777284145 | 25° C | 54% | 1015.2 hPa | 0 mm | - | - | - |
| 1777283244 | 24.44° C | 54% | 1015.4 hPa | 0 mm | - | - | - |
| 1777282343 | 24.44° C | 55% | 1015.4 hPa | 0 mm | - | - | - |
| 1777281443 | 23.89° C | 54% | 1015.5 hPa | 0 mm | - | - | - |
| 1777280543 | 23.33° C | 56% | 1015.4 hPa | 0 mm | - | - | - |
| 1777279704 | 23.33° C | 57% | 1015.5 hPa | 0 mm | - | - | - |
| 1777278802 | 22.78° C | 57% | 1015.5 hPa | 0 mm | - | - | - |
| 1777277840 | 22.22° C | 59% | 1015.5 hPa | 0 mm | - | - | - |
| 1777276940 | 21.67° C | 60% | 1015.4 hPa | 0 mm | - | - | - |
| 1777276039 | 21.67° C | 60% | 1015.5 hPa | 0 mm | - | - | - |
| 1777275199 | 20.56° C | 62% | 1015.5 hPa | 0 mm | - | - | - |
| 1777274239 | 20.56° C | 62% | 1015.6 hPa | 0 mm | - | - | - |
| 1777273340 | 20.56° C | 62% | 1015.5 hPa | 0 mm | - | - | - |
| 1777272439 | 20° C | 63% | 1015.5 hPa | 0 mm | - | - | - |
| 1777271539 | 19.44° C | 64% | 1015.4 hPa | 0 mm | - | - | - |
| 1777270639 | 18.89° C | 66% | 1015.2 hPa | 0 mm | - | - | - |
* Rain latest hour (hover to see other rain measurements)
** Current wind speed in m/s (hover to see current wind gust speed)